| time (UTC) | temp C | wind direction | speed KPH | gust KPH | rain 1hr cm | rain 24hr cm | rain mn cm | humidity % | barometer mb |
| 20260831185314 | 27 | 166 | 4.8 | 8.0 | 0.00 | 0.00 | 0.00 | 74 | 1018.1 |
| 20260831184337 | 27 | 99 | 6.4 | 11.3 | 0.00 | 0.00 | 0.00 | 75 | 1018.1 |
| 20260831183317 | 27 | 198 | 3.2 | 11.3 | 0.00 | 0.00 | 0.00 | 77 | 1018.1 |
| 20260831182319 | 27 | 134 | 4.8 | 8.0 | 0.00 | 0.00 | 0.00 | 75 | 1018.1 |
| 20260831181313 | 27 | 200 | 1.6 | 4.8 | 0.00 | 0.00 | 0.00 | 75 | 1018.4 |
| 20260831180315 | 27 | 252 | 3.2 | 4.8 | 0.00 | 0.00 | 0.00 | 73 | 1018.3 |
| 20260831175318 | 27 | 132 | 0.0 | 8.0 | 0.00 | 0.00 | 0.00 | 73 | 1018.4 |
| 20260831174322 | 27 | 144 | 3.2 | 9.7 | 0.00 | 0.00 | 0.00 | 72 | 1018.4 |
| 20260831173328 | 27 | 221 | 3.2 | 6.4 | 0.00 | 0.00 | 0.00 | 70 | 1018.4 |
| 20260831172336 | 27 | 204 | 3.2 | 8.0 | 0.00 | 0.00 | 0.00 | 70 | 1018.5 |
| 20260831171335 | 27 | 172 | 3.2 | 9.7 | 0.00 | 0.00 | 0.00 | 73 | 1018.4 |
| 20260831170313 | 28 | 170 | 4.8 | 9.7 | 0.00 | 0.00 | 0.00 | 71 | 1018.4 |
| 20260831165359 | 28 | 141 | 3.2 | 9.7 | 0.00 | 0.00 | 0.00 | 69 | 1018.5 |
| 20260831164329 | 27 | 200 | 1.6 | 4.8 | 0.00 | 0.00 | 0.00 | 74 | 1018.5 |
| 20260831163356 | 27 | 293 | 4.8 | 8.0 | 0.00 | 0.00 | 0.00 | 73 | 1018.7 |
| 20260831162315 | 27 | 286 | 3.2 | 6.4 | 0.00 | 0.00 | 0.00 | 73 | 1018.8 |
| 20260831161317 | 26 | 289 | 3.2 | 6.4 | 0.00 | 0.00 | 0.00 | 74 | 1018.8 |
| 20260831160359 | 26 | 268 | 0.0 | 4.8 | 0.00 | 0.00 | 0.00 | 74 | 1018.5 |
| 20260831155317 | 26 | 292 | 3.2 | 6.4 | 0.00 | 0.00 | 0.00 | 74 | 1018.7 |
| 20260831154335 | 27 | 290 | 3.2 | 6.4 | 0.00 | 0.00 | 0.00 | 73 | 1018.6 |
| 20260831153335 | 27 | 295 | 3.2 | 4.8 | 0.00 | 0.00 | 0.00 | 73 | 1018.8 |
| 20260831152337 | 27 | 339 | 1.6 | 11.3 | 0.00 | 0.00 | 0.00 | 73 | 1018.9 |
| 20260831151319 | 27 | 290 | 3.2 | 6.4 | 0.00 | 0.00 | 0.00 | 73 | 1019.0 |
| 20260831150339 | 27 | 259 | 1.6 | 6.4 | 0.00 | 0.00 | 0.00 | 77 | 1019.0 |
| 20260831145313 | 26 | 271 | 3.2 | 6.4 | 0.00 | 0.00 | 0.00 | 80 | 1019.0 |
| 20260831144314 | 25 | 288 | 3.2 | 6.4 | 0.00 | 0.00 | 0.00 | 79 | 1019.1 |
| 20260831143330 | 25 | 315 | 4.8 | 8.0 | 0.00 | 0.00 | 0.00 | 82 | 1019.0 |
| 20260831142336 | 25 | 339 | 3.2 | 4.8 | 0.00 | 0.00 | 0.00 | 85 | 1019.0 |
| 20260831141321 | 25 | 286 | 1.6 | 4.8 | 0.00 | 0.00 | 0.00 | 85 | 1019.0 |
| 20260831140334 | 25 | 286 | 3.2 | 4.8 | 0.00 | 0.00 | 0.00 | 85 | 1019.1 |
| 20260831135348 | 24 | 192 | 0.0 | 4.8 | 0.00 | 0.00 | 0.00 | 90 | 1019.1 |
| 20260831134314 | 23 | 214 | 1.6 | 4.8 | 0.00 | 0.00 | 0.00 | 91 | 1019.1 |
| 20260831133314 | 23 | 260 | 0.0 | 3.2 | 0.00 | 0.00 | 0.00 | 92 | 1019.1 |
| 20260831132316 | 23 | 260 | 1.6 | 4.8 | 0.00 | 0.00 | 0.00 | 92 | 1019.2 |
| 20260831131316 | 22 | 203 | 1.6 | 4.8 | 0.00 | 0.00 | 0.00 | 93 | 1019.2 |
| 20260831130331 | 22 | 310 | 4.8 | 8.0 | 0.00 | 0.00 | 0.00 | 94 | 1019.2 |
| 20260831125329 | 22 | 232 | 1.6 | 4.8 | 0.00 | 0.00 | 0.00 | 94 | 1018.9 |
| 20260831124315 | 22 | 313 | 0.0 | 3.2 | 0.00 | 0.00 | 0.00 | 95 | 1018.8 |
| 20260831123332 | 22 | 313 | 1.6 | 3.2 | 0.00 | 0.00 | 0.00 | 95 | 1019.0 |
| 20260831122314 | 22 | 313 | 1.6 | 4.8 | 0.00 | 0.00 | 0.00 | 95 | 1019.0 |
| 20260831121334 | 21 | 58 | 0.0 | 1.6 | 0.00 | 0.00 | 0.00 | 95 | 1019.0 |
| 20260831120319 | 21 | 58 | 0.0 | 1.6 | 0.00 | 0.00 | 0.00 | 95 | 1018.9 |
| 20260831115330 | 21 | 58 | 0.0 | 0.0 | 0.00 | 0.00 | 0.00 | 95 | 1018.9 |
| 20260831114337 | 21 | 58 | 0.0 | 1.6 | 0.00 | 0.00 | 0.00 | 95 | 1018.9 |
| 20260831113328 | 21 | 58 | 0.0 | 3.2 | 0.00 | 0.00 | 0.00 | 95 | 1018.7 |
| 20260831112336 | 21 | 58 | 1.6 | 3.2 | 0.00 | 0.00 | 0.00 | 95 | 1018.6 |
| 20260831111356 | 21 | 71 | 0.0 | 3.2 | 0.00 | 0.00 | 0.00 | 94 | 1018.8 |
| 20260831110336 | 21 | 272 | 1.6 | 3.2 | 0.00 | 0.00 | 0.00 | 95 | 1018.7 |
| 20260831105337 | 21 | 272 | 0.0 | 0.0 | 0.00 | 0.00 | 0.00 | 94 | 1018.4 |
| 20260831104316 | 21 | 272 | 0.0 | 1.6 | 0.00 | 0.00 | 0.00 | 94 | 1018.3 |
| 20260831103314 | 21 | 272 | 0.0 | 1.6 | 0.00 | 0.00 | 0.00 | 94 | 1018.1 |
| 20260831102327 | 21 | 272 | 0.0 | 3.2 | 0.00 | 0.00 | 0.00 | 94 | 1018.1 |
| 20260831101335 | 21 | 272 | 0.0 | 3.2 | 0.00 | 0.00 | 0.00 | 94 | 1018.1 |
| 20260831100311 | 21 | 272 | 0.0 | 3.2 | 0.00 | 0.00 | 0.00 | 94 | 1018.0 |
| 20260831095337 | 21 | 272 | 1.6 | 3.2 | 0.00 | 0.00 | 0.00 | 94 | 1017.9 |
| 20260831094314 | 21 | 139 | 1.6 | 3.2 | 0.00 | 0.00 | 0.00 | 94 | 1017.8 |
| 20260831093335 | 21 | 139 | 1.6 | 4.8 | 0.00 | 0.00 | 0.00 | 94 | 1017.8 |
| 20260831092332 | 21 | 154 | 3.2 | 4.8 | 0.00 | 0.00 | 0.00 | 94 | 1017.8 |
| 20260831091337 | 21 | 188 | 1.6 | 9.7 | 0.00 | 0.00 | 0.00 | 94 | 1017.6 |
| 20260831090317 | 21 | 157 | 4.8 | 8.0 | 0.00 | 0.00 | 0.00 | 94 | 1017.5 |
| 20260831085315 | 21 | 180 | 1.6 | 6.4 | 0.00 | 0.00 | 0.00 | 94 | 1017.5 |
| 20260831084321 | 21 | 360 | 1.6 | 3.2 | 0.00 | 0.00 | 0.00 | 94 | 1017.4 |
| 20260831083313 | 21 | 360 | 0.0 | 1.6 | 0.00 | 0.00 | 0.00 | 93 | 1017.3 |
| 20260831082314 | 21 | 360 | 0.0 | 3.2 | 0.00 | 0.00 | 0.00 | 93 | 1017.3 |
| 20260831081323 | 21 | 360 | 0.0 | 1.6 | 0.00 | 0.00 | 0.00 | 93 | 1017.4 |
| 20260831080323 | 21 | 360 | 0.0 | 1.6 | 0.00 | 0.00 | 0.00 | 93 | 1017.2 |
| 20260831075354 | 21 | 360 | 1.6 | 4.8 | 0.00 | 0.00 | 0.00 | 93 | 1017.1 |
| 20260831074313 | 21 | 86 | 1.6 | 3.2 | 0.00 | 0.00 | 0.00 | 93 | 1017.0 |
| 20260831073317 | 21 | 86 | 0.0 | 0.0 | 0.00 | 0.00 | 0.00 | 92 | 1017.0 |
| 20260831072342 | 21 | 86 | 0.0 | 3.2 | 0.00 | 0.00 | 0.00 | 92 | 1017.1 |
| 20260831071338 | 21 | 86 | 1.6 | 3.2 | 0.00 | 0.00 | 0.00 | 92 | 1017.1 |
| 20260831070339 | 21 | 86 | 1.6 | 3.2 | 0.00 | 0.00 | 0.00 | 92 | 1017.1 |
| 20260831065339 | 21 | 86 | 0.0 | 3.2 | 0.00 | 0.00 | 0.00 | 92 | 1017.4 |
| 20260831064321 | 21 | 86 | 1.6 | 3.2 | 0.00 | 0.00 | 0.00 | 92 | 1017.4 |
| 20260831063318 | 21 | 86 | 0.0 | 1.6 | 0.00 | 0.00 | 0.00 | 92 | 1017.5 |
| 20260831062318 | 22 | 86 | 0.0 | 4.8 | 0.00 | 0.00 | 0.00 | 92 | 1017.7 |
| 20260831061331 | 21 | 86 | 3.2 | 4.8 | 0.00 | 0.00 | 0.00 | 92 | 1017.7 |
| 20260831060358 | 22 | 86 | 0.0 | 3.2 | 0.00 | 0.00 | 0.00 | 92 | 1017.7 |
| 20260831055353 | 22 | 31 | 1.6 | 6.4 | 0.00 | 0.00 | 0.00 | 91 | 1017.9 |
| 20260831054330 | 22 | 176 | 3.2 | 4.8 | 0.00 | 0.00 | 0.00 | 91 | 1017.6 |
| 20260831053314 | 22 | 176 | 0.0 | 1.6 | 0.00 | 0.00 | 0.00 | 91 | 1017.5 |
| 20260831052332 | 22 | 176 | 0.0 | 0.0 | 0.00 | 0.00 | 0.00 | 91 | 1017.5 |
| 20260831051313 | 22 | 176 | 0.0 | 1.6 | 0.00 | 0.00 | 0.00 | 91 | 1017.5 |
| 20260831050336 | 22 | 176 | 0.0 | 3.2 | 0.00 | 0.00 | 0.00 | 91 | 1017.5 |
| 20260831045338 | 22 | 176 | 0.0 | 1.6 | 0.00 | 0.00 | 0.00 | 90 | 1017.5 |
| 20260831044358 | 22 | 176 | 0.0 | 1.6 | 0.00 | 0.00 | 0.00 | 90 | 1017.7 |
| 20260831043315 | 22 | 176 | 0.0 | 1.6 | 0.00 | 0.00 | 0.00 | 90 | 1017.8 |
| 20260831042313 | 22 | 176 | 0.0 | 1.6 | 0.00 | 0.00 | 0.00 | 90 | 1017.9 |
| 20260831041359 | 22 | 176 | 0.0 | 1.6 | 0.00 | 0.00 | 0.00 | 90 | 1017.9 |
| 20260831040333 | 22 | 176 | 0.0 | 1.6 | 0.00 | 0.00 | 0.00 | 89 | 1017.9 |
| 20260831035314 | 22 | 176 | 1.6 | 3.2 | 0.00 | 0.00 | 0.00 | 89 | 1017.9 |
| 20260831034336 | 22 | 176 | 0.0 | 0.0 | 0.00 | 0.00 | 0.00 | 89 | 1018.0 |
| 20260831033313 | 23 | 176 | 0.0 | 0.0 | 0.00 | 0.00 | 0.00 | 89 | 1018.1 |
| 20260831032332 | 23 | 176 | 1.6 | 3.2 | 0.00 | 0.00 | 0.00 | 88 | 1018.2 |
| 20260831031313 | 23 | 176 | 0.0 | 1.6 | 0.00 | 0.00 | 0.00 | 89 | 1018.3 |
| 20260831030333 | 23 | 176 | 0.0 | 1.6 | 0.00 | 0.00 | 0.00 | 88 | 1018.3 |
| 20260831025333 | 23 | 176 | 0.0 | 1.6 | 0.00 | 0.00 | 0.00 | 88 | 1018.2 |
| 20260831024338 | 23 | 176 | 0.0 | 1.6 | 0.00 | 0.00 | 0.00 | 88 | 1018.2 |
| 20260831023333 | 23 | 176 | 0.0 | 1.6 | 0.00 | 0.00 | 0.00 | 88 | 1018.1 |
| 20260831022322 | 23 | 176 | 0.0 | 0.0 | 0.00 | 0.00 | 0.00 | 87 | 1018.3 |
| 20260831021325 | 23 | 176 | 0.0 | 6.4 | 0.00 | 0.00 | 0.00 | 87 | 1018.3 |
| 20260831020329 | 23 | 134 | 3.2 | 8.0 | 0.00 | 0.00 | 0.00 | 87 | 1018.3 |
| 20260831015317 | 23 | 138 | 1.6 | 4.8 | 0.00 | 0.00 | 0.00 | 87 | 1018.3 |
| 20260831014313 | 24 | 221 | 0.0 | 1.6 | 0.00 | 0.00 | 0.00 | 87 | 1018.2 |
| 20260831013316 | 24 | 221 | 0.0 | 0.0 | 0.00 | 0.00 | 0.00 | 87 | 1018.2 |
| 20260831012323 | 24 | 221 | 0.0 | 1.6 | 0.00 | 0.00 | 0.00 | 87 | 1018.2 |
| 20260831011355 | 24 | 221 | 0.0 | 3.2 | 0.00 | 0.00 | 0.00 | 87 | 1018.2 |
| 20260831010313 | 24 | 221 | 0.0 | 1.6 | 0.00 | 0.00 | 0.00 | 86 | 1018.0 |
| 20260831005334 | 24 | 221 | 0.0 | 3.2 | 0.00 | 0.00 | 0.00 | 86 | 1017.6 |
| 20260831004316 | 24 | 221 | 0.0 | 3.2 | 0.00 | 0.00 | 0.00 | 84 | 1017.4 |
| 20260831003337 | 24 | 221 | 1.6 | 3.2 | 0.00 | 0.00 | 0.00 | 83 | 1017.3 |
| 20260831002318 | 25 | 221 | 1.6 | 3.2 | 0.00 | 0.00 | 0.00 | 82 | 1017.2 |
| 20260831001338 | 25 | 142 | 1.6 | 3.2 | 0.00 | 0.00 | 0.00 | 81 | 1017.0 |
| 20260831000355 | 25 | 138 | 1.6 | 8.0 | 0.00 | 0.00 | 0.00 | 79 | 1017.0 |
| 20260830235332 | 26 | 187 | 1.6 | 4.8 | 0.00 | 0.00 | 0.00 | 78 | 1016.8 |
| 20260830234312 | 26 | 165 | 3.2 | 6.4 | 0.00 | 0.00 | 0.00 | 77 | 1016.8 |
| 20260830233333 | 27 | 161 | 1.6 | 4.8 | 0.00 | 0.00 | 0.00 | 75 | 1016.8 |
| 20260830232319 | 27 | 161 | 1.6 | 8.0 | 0.00 | 0.00 | 0.00 | 75 | 1016.8 |
| 20260830231325 | 27 | 164 | 4.8 | 9.7 | 0.00 | 0.00 | 0.00 | 75 | 1016.9 |
| 20260830230332 | 28 | 169 | 3.2 | 8.0 | 0.00 | 0.00 | 0.00 | 74 | 1017.0 |
| 20260830225331 | 28 | 173 | 3.2 | 8.0 | 0.00 | 0.00 | 0.00 | 74 | 1017.1 |
| 20260830224336 | 28 | 185 | 6.4 | 11.3 | 0.00 | 0.00 | 0.00 | 73 | 1017.1 |
| 20260830223315 | 28 | 141 | 6.4 | 14.5 | 0.00 | 0.00 | 0.00 | 74 | 1017.1 |
| 20260830222318 | 28 | 128 | 6.4 | 14.5 | 0.00 | 0.00 | 0.00 | 73 | 1017.1 |
| 20260830221314 | 29 | 144 | 8.0 | 12.9 | 0.00 | 0.00 | 0.00 | 72 | 1017.0 |
| 20260830220321 | 29 | 143 | 6.4 | 11.3 | 0.00 | 0.00 | 0.00 | 71 | 1017.0 |
| 20260830215352 | 29 | 140 | 6.4 | 12.9 | 0.00 | 0.00 | 0.00 | 71 | 1017.0 |
| 20260830214319 | 30 | 140 | 6.4 | 16.1 | 0.00 | 0.00 | 0.00 | 71 | 1017.0 |
| 20260830213332 | 30 | 124 | 8.0 | 12.9 | 0.00 | 0.00 | 0.00 | 70 | 1016.9 |
| 20260830212336 | 29 | 148 | 4.8 | 12.9 | 0.00 | 0.00 | 0.00 | 70 | 1016.9 |
| 20260830211331 | 29 | 169 | 4.8 | 14.5 | 0.00 | 0.00 | 0.00 | 71 | 1016.9 |
| 20260830210330 | 29 | 163 | 1.6 | 12.9 | 0.00 | 0.00 | 0.00 | 72 | 1016.9 |
| 20260830205312 | 29 | 146 | 3.2 | 12.9 | 0.00 | 0.00 | 0.00 | 73 | 1017.0 |
| 20260830204327 | 28 | 351 | 3.2 | 6.4 | 0.00 | 0.00 | 0.00 | 76 | 1017.1 |
| 20260830203318 | 28 | 49 | 3.2 | 9.7 | 0.00 | 0.00 | 0.00 | 76 | 1017.2 |
| 20260830202331 | 28 | 5 | 6.4 | 12.9 | 0.00 | 0.00 | 0.00 | 76 | 1017.5 |
| 20260830201336 | 28 | 5 | 6.4 | 17.7 | 0.00 | 0.00 | 0.00 | 77 | 1017.5 |
| 20260830200329 | 27 | 148 | 0.0 | 4.8 | 0.00 | 0.00 | 0.00 | 76 | 1017.6 |
| 20260830195314 | 27 | 152 | 4.8 | 6.4 | 0.00 | 0.00 | 0.00 | 78 | 1017.5 |
| 20260830194334 | 27 | 157 | 3.2 | 11.3 | 0.00 | 0.00 | 0.00 | 79 | 1017.4 |
| 20260830193311 | 27 | 129 | 4.8 | 11.3 | 0.00 | 0.00 | 0.00 | 76 | 1017.1 |
| 20260830192311 | 28 | 178 | 8.0 | 12.9 | 0.00 | 0.00 | 0.00 | 73 | 1017.8 |
| 20260830191320 | 28 | 153 | 6.4 | 11.3 | 0.00 | 0.00 | 0.00 | 71 | 1017.9 |
| 20260830190311 | 29 | 213 | 8.0 | 14.5 | 0.00 | 0.00 | 0.00 | 67 | 1018.0 |